This demonstration page uses our WeatherBlox Daily Observations layout. Learn more.

Left ArrowRight Arrow

39.92423, -83.80882

Hourly Observations for March 24, 2018

Temp ( °F °C ) Dew Point ( °F °C ) Humidity (%) Winds ( mph kmh ) Pressure ( in mb ) Visibility ( mi km ) Precip ( " mm )
12:56 am 00:56 Clear 28 -2.2 22 -5.6 78 78 E 6 9 30.30 1026 10 16 N/A
1:56 am 01:56 Clear 26 -3.3 20 -6.7 78 78 ENE 6 9 30.29 1026 10 16 N/A
3:56 am 03:56 Clear 24 -4.4 20 -6.7 84 84 ENE 9 15 30.29 1026 10 16 N/A
4:56 am 04:56 Clear 26 -3.3 21 -6.1 81 81 E 8 13 30.27 1025 10 16 N/A
5:56 am 05:56 Clear 27 -2.8 22 -5.6 81 81 E 8 13 30.27 1025 10 16 N/A
6:56 am 06:56 Clear 28 -2.2 23 -5 81 81 E 9 15 30.27 1025 10 16 N/A
7:56 am 07:56 Sunny 28 -2.2 21 -6.1 75 75 E 13 20 30.26 1025 10 16 N/A
8:56 am 08:56 Sunny 29 -1.7 21 -6.1 72 72 E 14 22 30.26 1025 10 16 N/A
9:56 am 09:56 Sunny 31 -0.6 22 -5.6 69 69 E 15 24 30.24 1024 10 16 N/A
10:56 am 10:56 Sunny 34 1.1 21 -6.1 59 59 E 14 22 30.22 1024 10 16 N/A
11:56 am 11:56 Mostly Cloudy 34 1.1 20 -6.7 56 56 E 16 26 30.23 1024 10 16 N/A
12:56 pm 12:56 Partly Cloudy 36 2.2 20 -6.7 52 52 ESE 13 20 30.22 1023 10 16 N/A
1:56 pm 13:56 Mostly Cloudy 37 2.8 20 -6.7 50 50 E 15 24 30.17 1022 10 16 N/A
2:56 pm 14:56 Cloudy 38 3.3 19 -7.2 46 46 E 16 26 30.14 1021 10 16 N/A
3:56 pm 15:56 Mostly Cloudy 38 3.3 20 -6.7 48 48 E 15 24 30.11 1020 10 16 N/A
4:56 pm 16:56 Cloudy 37 2.8 20 -6.7 50 50 E 14 22 30.12 1020 10 16 N/A
5:56 pm 17:56 Partly Cloudy 37 2.8 21 -6.1 52 52 E 7 11 30.15 1021 10 16 N/A
6:56 pm 18:56 Sunny 37 2.8 22 -5.6 54 54 E 8 13 30.11 1020 10 16 N/A
8:56 pm 20:56 Clear 37 2.8 22 -5.6 54 54 NE 16 26 30.15 1021 10 16 N/A
9:56 pm 21:56 Clear 34 1.1 24 -4.4 67 67 NE 15 24 30.17 1022 10 16 N/A
10:56 pm 22:56 Clear 33 0.6 17 -8.3 52 52 NE 16 26 30.19 1022 10 16 N/A
11:56 pm 23:56 Clear 32 undefined 17 -8.3 54 54 NE 22 35 30.19 1022 10 16 N/A

Powered by AerisWeather